2022-03-12 00:02:59 r, 19.11m,0000000002Hz,0000241139c,0000000.523s,-009.7C,00002191
2022-03-12 00:13:02 r, 19.15m,0000000002Hz,0000250540c,0000000.544s,-009.7C,00002191
2022-03-12 00:23:00 r, 19.19m,0000000002Hz,0000261078c,0000000.567s,-010.0C,00002191
2022-03-12 00:32:59 r, 19.23m,0000000001Hz,0000270784c,0000000.588s,-010.4C,00002191
2022-03-12 00:43:00 r, 19.27m,0000000001Hz,0000280449c,0000000.609s,-010.4C,00002191
2022-03-12 00:53:01 r, 19.31m,0000000002Hz,0000290818c,0000000.631s,-010.4C,00002191
2022-03-12 01:02:59 r, 19.34m,0000000001Hz,0000299819c,0000000.651s,-010.4C,00002191
2022-03-12 01:12:59 r, 19.38m,0000000001Hz,0000310975c,0000000.675s,-010.4C,00002191
2022-03-12 01:23:02 r, 19.41m,0000000002Hz,0000320664c,0000000.696s,-010.4C,00002191
2022-03-12 01:32:59 r, 19.45m,0000000002Hz,0000331315c,0000000.719s,-010.0C,00002191
2022-03-12 01:43:01 r, 19.49m,0000000002Hz,0000343711c,0000000.746s,-010.0C,00002191
2022-03-12 01:53:00 r, 19.53m,0000000002Hz,0000355326c,0000000.771s,-009.7C,00002191
2022-03-12 02:02:59 r, 19.57m,0000000002Hz,0000368515c,0000000.800s,-009.4C,00002191
2022-03-12 02:13:02 r, 19.61m,0000000001Hz,0000382103c,0000000.829s,-009.4C,00002191
2022-03-12 02:23:00 r, 19.65m,0000000001Hz,0000396715c,0000000.861s,-009.4C,00002191
2022-03-12 02:32:59 r, 19.69m,0000000001Hz,0000411683c,0000000.893s,-009.1C,00002191
2022-03-12 02:43:00 r, 19.73m,0000000001Hz,0000426101c,0000000.925s,-009.1C,00002191
2022-03-12 02:53:01 r, 19.77m,0000000001Hz,0000442584c,0000000.960s,-008.8C,00002191
2022-03-12 03:02:59 r, 19.80m,0000000001Hz,0000456286c,0000000.990s,-008.8C,00002191
2022-03-12 03:13:01 r, 19.84m,0000000001Hz,0000474326c,0000001.029s,-008.8C,00002191
2022-03-12 03:23:00 r, 19.88m,0000000001Hz,0000488606c,0000001.060s,-009.1C,00002191
2022-03-12 03:32:59 r, 19.92m,0000000001Hz,0000504834c,0000001.096s,-009.4C,00002191
2022-03-12 03:43:00 r, 19.95m,0000000000Hz,0000520486c,0000001.130s,-009.7C,00002191
2022-03-12 03:53:02 r, 20.00m,0000000000Hz,0000548138c,0000001.190s,-010.0C,00002191
2022-03-12 04:02:59 r, 20.02m,0000000001Hz,0000556086c,0000001.207s,-010.0C,00002191
2022-03-12 04:12:59 r, 20.07m,0000000001Hz,0000582860c,0000001.265s,-010.4C,00002191
2022-03-12 04:23:00 r, 20.07m,0000000001Hz,0000581735c,0000001.262s,-010.7C,00002191
2022-03-12 04:32:59 r, 20.08m,0000000000Hz,0000589473c,0000001.279s,-011.0C,00002191
2022-03-12 04:43:02 r, 20.09m,0000000001Hz,0000593106c,0000001.287s,-011.0C,00002191
2022-03-12 04:53:00 r, 20.03m,0000000001Hz,0000561434c,0000001.218s,-011.0C,00002191
2022-03-12 05:02:59 r, 19.71m,0000000001Hz,0000419945c,0000000.911s,-011.0C,00002191
2022-03-12 05:12:59 r, 19.37m,0000000002Hz,0000308112c,0000000.669s,-010.7C,00002191
2022-03-12 05:23:01 r, 19.31m,0000000002Hz,0000290955c,0000000.631s,-010.7C,00002191
2022-03-12 05:32:59 r, 19.26m,0000000002Hz,0000278465c,0000000.604s,-010.7C,00002191
2022-03-12 05:42:59 r, 18.78m,0000000002Hz,0000177863c,0000000.386s,-010.4C,00002191
2022-03-12 05:53:02 r, 17.65m,0000000007Hz,0000062942c,0000000.137s,-010.4C,00002191
2022-03-12 06:02:59 r, 16.01m,0000000033Hz,0000013841c,0000000.030s,-010.4C,00002191
2022-03-12 06:12:59 r, 13.96m,0000000221Hz,0000000000c,0000000.000s,-010.0C,00002191
2022-03-12 06:23:00 r, 11.72m,0000001733Hz,0000000000c,0000000.000s,-009.7C,00002191
2022-03-12 06:32:59 r, 09.65m,0000011607Hz,0000000000c,0000000.000s,-009.7C,00002191
2022-03-12 06:42:59 r, 08.27m,0000041509Hz,0000000000c,0000000.000s,-009.4C,00002191
2022-03-12 06:53:00 r, 07.25m,0000107003Hz,0000000000c,0000000.000s,-008.8C,00002191
2022-03-12 07:02:59 r, 06.30m,0000255582Hz,0000000000c,0000000.000s,-008.4C,00002191
2022-03-12 07:12:59 r, 00.00m,0000520140Hz,0000000000c,0000000.000s,-007.8C,00002191
2022-03-12 07:23:01 r, 00.00m,0000599527Hz,0000000000c,0000000.000s,-007.1C,00002191
2022-03-12 07:32:59 r, 00.00m,0000599460Hz,0000000000c,0000000.000s,-006.5C,00002191
2022-03-12 07:42:59 r, 00.00m,0000599450Hz,0000000000c,0000000.000s,-005.9C,00002191
2022-03-12 07:53:02 r, 00.00m,0000599457Hz,0000000000c,0000000.000s,-004.9C,00002191
2022-03-12 08:02:59 r, 00.00m,0000599366Hz,0000000000c,0000000.000s,-004.2C,00002191
2022-03-12 08:12:59 r, 00.00m,0000599286Hz,0000000000c,0000000.000s,-003.3C,00002191
2022-03-12 08:23:02 r, 00.00m,0000599156Hz,0000000000c,0000000.000s,-002.6C,00002191
2022-03-12 08:33:00 r, 00.00m,0000599184Hz,0000000000c,0000000.000s,-002.3C,00002191
2022-03-12 08:42:59 r, 00.00m,0000599041Hz,0000000000c,0000000.000s,-002.3C,00002191
2022-03-12 08:53:00 r, 00.00m,0000599111Hz,0000000000c,0000000.000s,-001.7C,00002191
2022-03-12 09:03:01 r, 00.00m,0000599037Hz,0000000000c,0000000.000s,-000.7C,00002191
2022-03-12 09:12:59 r, 00.00m,0000598872Hz,0000000000c,0000000.000s, 001.2C,00002191
2022-03-12 09:23:01 r, 00.00m,0000598752Hz,0000000000c,0000000.000s, 002.2C,00002191
2022-03-12 09:33:00 r, 00.00m,0000598589Hz,0000000000c,0000000.000s, 003.2C,00002191
2022-03-12 09:42:59 r, 00.00m,0000598629Hz,0000000000c,0000000.000s, 003.5C,00002191
2022-03-12 09:53:00 r, 00.00m,0000598578Hz,0000000000c,0000000.000s, 003.5C,00002191
2022-03-12 10:03:02 r, 00.00m,0000598565Hz,0000000000c,0000000.000s, 003.8C,00002191
2022-03-12 10:12:59 r, 00.00m,0000598638Hz,0000000000c,0000000.000s, 004.1C,00002191
2022-03-12 10:23:02 r, 00.00m,0000598460Hz,0000000000c,0000000.000s, 004.5C,00002191
2022-03-12 10:33:00 r, 00.00m,0000598621Hz,0000000000c,0000000.000s, 004.8C,00002191
2022-03-12 10:42:59 r, 00.00m,0000598473Hz,0000000000c,0000000.000s, 004.8C,00002191
2022-03-12 10:53:02 r, 00.00m,0000598400Hz,0000000000c,0000000.000s, 005.1C,00002191
2022-03-12 11:03:00 r, 00.00m,0000598379Hz,0000000000c,0000000.000s, 005.4C,00002191
2022-03-12 11:12:59 r, 00.00m,0000598298Hz,0000000000c,0000000.000s, 006.4C,00002191
2022-03-12 11:23:00 r, 00.00m,0000598163Hz,0000000000c,0000000.000s, 007.4C,00002191
2022-03-12 11:33:00 r, 00.00m,0000597928Hz,0000000000c,0000000.000s, 009.0C,00002191
2022-03-12 11:42:59 r, 00.00m,0000597986Hz,0000000000c,0000000.000s, 009.9C,00002191
2022-03-12 11:53:00 r, 00.00m,0000597953Hz,0000000000c,0000000.000s, 010.6C,00002191
2022-03-12 12:03:00 r, 00.00m,0000597981Hz,0000000000c,0000000.000s, 010.6C,00002191
2022-03-12 12:12:59 r, 00.00m,0000597887Hz,0000000000c,0000000.000s, 010.9C,00002191
2022-03-12 12:23:00 r, 00.00m,0000597746Hz,0000000000c,0000000.000s, 012.8C,00002191
2022-03-12 12:33:02 r, 00.00m,0000597553Hz,0000000000c,0000000.000s, 013.2C,00002191
2022-03-12 12:42:59 r, 00.00m,0000597669Hz,0000000000c,0000000.000s, 013.5C,00002191
2022-03-12 12:53:02 r, 00.00m,0000597613Hz,0000000000c,0000000.000s, 012.8C,00002191
2022-03-12 13:03:00 r, 00.00m,0000597756Hz,0000000000c,0000000.000s, 012.2C,00002191
2022-03-12 13:12:59 r, 00.00m,0000597827Hz,0000000000c,0000000.000s, 011.6C,00002191
2022-03-12 13:23:02 r, 00.00m,0000597866Hz,0000000000c,0000000.000s, 011.6C,00002191
2022-03-12 13:33:00 r, 00.00m,0000597687Hz,0000000000c,0000000.000s, 011.9C,00002191
2022-03-12 13:42:59 r, 00.00m,0000597752Hz,0000000000c,0000000.000s, 012.2C,00002191
2022-03-12 13:53:00 r, 00.00m,0000597633Hz,0000000000c,0000000.000s, 012.2C,00002191
2022-03-12 14:03:00 r, 00.00m,0000597786Hz,0000000000c,0000000.000s, 011.6C,00002191
2022-03-12 14:12:59 r, 00.00m,0000597986Hz,0000000000c,0000000.000s, 010.3C,00002191
2022-03-12 14:23:00 r, 00.00m,0000598020Hz,0000000000c,0000000.000s, 009.9C,00002191
2022-03-12 14:33:00 r, 00.00m,0000598066Hz,0000000000c,0000000.000s, 009.9C,00002191
2022-03-12 14:42:59 r, 00.00m,0000598109Hz,0000000000c,0000000.000s, 009.6C,00002191
2022-03-12 14:53:00 r, 00.00m,0000598129Hz,0000000000c,0000000.000s, 009.0C,00002191
2022-03-12 15:03:01 r, 00.00m,0000598186Hz,0000000000c,0000000.000s, 008.3C,00002191
2022-03-12 15:12:59 r, 00.00m,0000598297Hz,0000000000c,0000000.000s, 007.7C,00002191
2022-03-12 15:22:59 r, 00.00m,0000598298Hz,0000000000c,0000000.000s, 007.4C,00002191
2022-03-12 15:33:00 r, 00.00m,0000598353Hz,0000000000c,0000000.000s, 007.0C,00002191
2022-03-12 15:42:59 r, 00.00m,0000598260Hz,0000000000c,0000000.000s, 007.4C,00002191
2022-03-12 15:53:00 r, 00.00m,0000598223Hz,0000000000c,0000000.000s, 007.4C,00002191
2022-03-12 16:03:00 r, 00.00m,0000598281Hz,0000000000c,0000000.000s, 007.7C,00002191
2022-03-12 16:12:59 r, 00.00m,0000598271Hz,0000000000c,0000000.000s, 008.0C,00002191
2022-03-12 16:23:00 r, 00.00m,0000598246Hz,0000000000c,0000000.000s, 008.0C,00002191
2022-03-12 16:33:00 r, 00.00m,0000598232Hz,0000000000c,0000000.000s, 007.7C,00002191
2022-03-12 16:42:59 r, 00.00m,0000598342Hz,0000000000c,0000000.000s, 007.4C,00002191
2022-03-12 16:53:00 r, 00.00m,0000598320Hz,0000000000c,0000000.000s, 007.0C,00002191
2022-03-12 17:03:02 r, 00.00m,0000598485Hz,0000000000c,0000000.000s, 006.7C,00002191
2022-03-12 17:12:59 r, 00.00m,0000598391Hz,0000000000c,0000000.000s, 006.4C,00002191
2022-03-12 17:22:59 r, 00.00m,0000598535Hz,0000000000c,0000000.000s, 006.4C,00002191
2022-03-12 17:33:00 r, 00.00m,0000598473Hz,0000000000c,0000000.000s, 006.4C,00002191
2022-03-12 17:42:59 r, 00.00m,0000598683Hz,0000000000c,0000000.000s, 006.1C,00002191
2022-03-12 17:53:01 r, 00.00m,0000580707Hz,0000000000c,0000000.000s, 006.1C,00002191
2022-03-12 18:03:00 r, 00.00m,0000458783Hz,0000000000c,0000000.000s, 006.1C,00002191
2022-03-12 18:12:59 r, 06.43m,0000225382Hz,0000000000c,0000000.000s, 005.8C,00002191
2022-03-12 18:23:00 r, 07.11m,0000121850Hz,0000000000c,0000000.000s, 005.4C,00002191
2022-03-12 18:33:00 r, 07.94m,0000056076Hz,0000000000c,0000000.000s, 005.4C,00002191
2022-03-12 18:42:59 r, 09.36m,0000015211Hz,0000000000c,0000000.000s, 005.1C,00002191
2022-03-12 18:52:59 r, 11.39m,0000002360Hz,0000000000c,0000000.000s, 005.4C,00002191
2022-03-12 19:03:01 r, 13.35m,0000000386Hz,0000000000c,0000000.000s, 005.8C,00002191
2022-03-12 19:12:59 r, 15.16m,0000000073Hz,0000006342c,0000000.014s, 006.1C,00002191
2022-03-12 19:22:59 r, 16.28m,0000000026Hz,0000017811c,0000000.039s, 006.4C,00002191
2022-03-12 19:33:01 r, 16.68m,0000000018Hz,0000025794c,0000000.056s, 006.7C,00002191
2022-03-12 19:42:59 r, 16.76m,0000000016Hz,0000027822c,0000000.060s, 006.7C,00002191
2022-03-12 19:52:59 r, 16.81m,0000000016Hz,0000029182c,0000000.063s, 007.0C,00002191
2022-03-12 20:03:00 r, 16.81m,0000000016Hz,0000029022c,0000000.063s, 007.0C,00002191
2022-03-12 20:12:59 r, 16.80m,0000000016Hz,0000028858c,0000000.063s, 007.0C,00002191
2022-03-12 20:23:01 r, 16.81m,0000000016Hz,0000029041c,0000000.063s, 007.4C,00002191
2022-03-12 20:33:00 r, 16.78m,0000000017Hz,0000028200c,0000000.061s, 007.4C,00002191
2022-03-12 20:42:59 r, 16.81m,0000000016Hz,0000029070c,0000000.063s, 007.4C,00002191
2022-03-12 20:53:00 r, 16.78m,0000000016Hz,0000028243c,0000000.061s, 007.4C,00002191
2022-03-12 21:03:00 r, 16.75m,0000000017Hz,0000027552c,0000000.060s, 007.7C,00002191
2022-03-12 21:12:59 r, 16.75m,0000000018Hz,0000027559c,0000000.060s, 007.7C,00002191
2022-03-12 21:23:00 r, 16.81m,0000000015Hz,0000028980c,0000000.063s, 007.7C,00002191
2022-03-12 21:33:00 r, 16.70m,0000000018Hz,0000026144c,0000000.057s, 007.7C,00002191
2022-03-12 21:42:59 r, 16.76m,0000000017Hz,0000027872c,0000000.060s, 007.7C,00002191
2022-03-12 21:52:59 r, 16.80m,0000000016Hz,0000028743c,0000000.062s, 007.7C,00002191
2022-03-12 22:03:01 r, 16.77m,0000000017Hz,0000028112c,0000000.061s, 008.0C,00002191
2022-03-12 22:12:59 r, 16.78m,0000000016Hz,0000028320c,0000000.061s, 008.0C,00002191
2022-03-12 22:22:59 r, 16.74m,0000000017Hz,0000027179c,0000000.059s, 008.3C,00002191
2022-03-12 22:33:00 r, 16.71m,0000000017Hz,0000026381c,0000000.057s, 008.3C,00002191
2022-03-12 22:42:59 r, 16.65m,0000000019Hz,0000025104c,0000000.054s, 008.3C,00002191
2022-03-12 22:52:59 r, 16.67m,0000000018Hz,0000025515c,0000000.055s, 008.3C,00002191
2022-03-12 23:03:00 r, 16.78m,0000000017Hz,0000028334c,0000000.061s, 008.3C,00002191
2022-03-12 23:12:59 r, 16.67m,0000000018Hz,0000025520c,0000000.055s, 008.3C,00002191
2022-03-12 23:22:59 r, 16.65m,0000000018Hz,0000025082c,0000000.054s, 008.3C,00002191
2022-03-12 23:33:00 r, 16.69m,0000000017Hz,0000025873c,0000000.056s, 008.7C,00002191
2022-03-12 23:42:59 r, 16.80m,0000000016Hz,0000028791c,0000000.062s, 008.7C,00002191
2022-03-12 23:52:59 r, 16.87m,0000000015Hz,0000030638c,0000000.066s, 008.7C,00002191
